[[{"header":{"parameterUnit":"m.s-1","parameterCategory":2,"la1":30.2991,"la2":30.254,"lo1":-89.0895,"lo2":-89.0444,"dy":0.0017,"dx":0.0017,"nx":28,"ny":28,"refTime":"2025-12-06T03:00:00:Z","depth":"0","parameterNumber":2,"parameterNumberName":"U-component_of_CURRENTS"},"data":[0,0,0,0,0,0,0,0,0,0,0,0,0,0,0,0,0,0,0,0,0,0,0,0,0,0,0,0,0,0,0,0,0,0,0,0,0,0,0,0,0,0,0,0,0,0,0,0,0,0,0,0,0,0,0,0,0,0,-0.2828,-0.2828,0,-0.2866,-0.2866,-0.2866,-0.2838,-0.2837,-0.2836,-0.2835,-0.2789,-0.2789,-0.2789,0,0,0,0,0,0,0,0,0,0,0,0,0,-0.2708,-0.271,-0.2827,-0.2828,-0.2829,-0.2866,-0.2866,-0.2866,-0.2838,-0.2837,-0.2836,-0.2835,-0.279,-0.2789,-0.2789,0,0,0,0,0,0,0,0,0,0,0,0,0,-0.2751,-0.2711,-0.2827,-0.2822,-0.2823,-0.2866,-0.2866,-0.2866,-0.2838,-0.2837,-0.2836,-0.2835,-0.279,-0.2789,-0.2789,-0.2811,0,0,-0.2787,-0.2786,0,0,0,0,0,0,0,0,-0.2748,-0.2755,-0.2822,-0.2823,-0.2823,-0.2849,-0.2807,-0.2845,-0.2839,-0.2828,-0.2835,-0.2834,-0.2805,-0.2803,-0.2809,-0.2809,-0.2807,-0.2787,-0.2786,-0.2786,-0.2786,0,0,0,0,0,0,0,-0.2745,-0.2753,-0.2839,-0.2823,-0.2824,-0.2811,-0.2815,-0.2814,-0.2819,-0.2829,-0.2828,-0.2839,-0.2804,-0.281,-0.2808,-0.2807,-0.2787,-0.2786,-0.2786,-0.2786,-0.2827,-0.2828,0,0,0,0,0,0,-0.2752,-0.275,-0.2838,-0.284,-0.2786,-0.2815,-0.2819,-0.2839,-0.2821,-0.2819,-0.284,-0.2838,-0.2811,-0.2808,-0.2806,-0.2814,-0.2786,-0.2785,-0.2785,-0.2825,-0.2827,-0.2829,0,0,0,0,0,0,-0.2749,-0.2759,-0.2836,-0.2798,-0.2808,-0.2819,-0.2841,-0.2841,-0.2842,-0.2831,-0.2826,-0.2841,-0.281,-0.2807,-0.2811,-0.2813,-0.2785,-0.2785,-0.2824,-0.2826,-0.2828,-0.2842,0,0,0,0,0,0,-0.2746,-0.2758,-0.2771,-0.2799,-0.281,-0.2865,-0.2842,-0.2842,-0.2853,-0.2849,-0.283,-0.2825,-0.2809,-0.2813,-0.2811,-0.2811,-0.2784,-0.2822,-0.2825,-0.2827,-0.284,-0.2845,-0.2849,0,0,0,0,0,-0.2741,-0.2771,-0.2772,-0.2782,-0.2829,-0.2866,-0.2871,-0.287,-0.2854,-0.2863,-0.2852,-0.2825,-0.2828,-0.2814,-0.2811,-0.2811,-0.282,-0.2824,-0.2827,-0.2838,-0.2844,-0.2849,0,0,0,0,0,0,-0.2734,-0.2772,-0.2773,-0.2815,-0.2839,-0.2863,-0.2878,-0.2874,-0.2875,-0.2867,-0.2844,-0.2839,-0.2846,-0.2837,-0.2821,-0.2836,-0.282,-0.2823,-0.283,-0.2835,-0.2839,-0.2823,-0.2784,0,0,0,0,0,-0.2739,-0.2763,-0.2798,-0.283,-0.2845,-0.2859,-0.2873,-0.2875,-0.2884,-0.2882,-0.2868,-0.286,-0.2862,-0.2853,-0.2857,-0.2862,-0.2829,-0.2864,-0.2869,-0.2872,-0.2861,-0.2808,-0.2805,-0.2839,-0.2839,-0.2839,0,0,-0.2751,-0.277,-0.2788,-0.2829,-0.2847,-0.2876,-0.2863,-0.2892,-0.2904,-0.2878,-0.2883,-0.2878,-0.2871,-0.2879,-0.2881,-0.2865,-0.2852,-0.2876,-0.2879,-0.2865,-0.2811,-0.2807,-0.2803,-0.2842,-0.2841,-0.2841,0,0,-0.2773,-0.2801,-0.282,-0.2847,-0.2877,-0.2891,-0.2899,-0.2923,-0.292,-0.2937,-0.2919,-0.291,-0.2919,-0.2902,-0.2898,-0.2931,-0.2884,-0.2941,-0.2935,-0.2885,-0.288,-0.2876,-0.2849,-0.2841,-0.2933,-0.2933,-0.2933,0,-0.2776,-0.2809,-0.2833,-0.2859,-0.2876,-0.2898,-0.2918,-0.2937,-0.2953,-0.293,-0.2943,-0.2923,-0.2926,-0.2904,-0.2928,-0.2935,-0.2907,-0.291,-0.2886,-0.288,-0.2875,-0.2848,-0.284,-0.2935,-0.2934,-0.2934,-0.2934,0,-0.2809,-0.2838,-0.2858,-0.2891,-0.2913,-0.2943,-0.297,-0.2974,-0.2972,-0.2966,-0.2946,-0.2952,-0.292,-0.2939,-0.295,-0.2919,-0.2913,-0.29,-0.2861,-0.2872,-0.2845,-0.2836,-0.2936,-0.2936,-0.2935,-0.2935,0,0,-0.2798,-0.2862,-0.287,-0.2867,-0.2927,-0.2935,-0.2965,-0.2963,-0.2938,-0.2959,-0.2915,-0.2942,-0.2913,-0.2909,-0.2908,-0.2886,-0.2855,-0.2886,-0.2883,-0.2841,-0.2753,-0.2699,-0.2684,-0.2829,-0.2827,-0.2825,-0.2754,0,-0.2804,-0.2843,-0.2877,-0.2899,-0.2913,-0.2937,-0.2949,-0.2948,-0.2944,-0.2916,-0.2905,-0.2883,-0.2912,-0.2891,-0.2873,-0.2867,-0.2829,-0.2876,-0.2766,-0.2763,-0.2696,-0.2671,-0.2557,-0.2478,-0.2745,-0.2744,-0.2743,0,-0.2803,-0.2828,-0.2855,-0.286,-0.2865,-0.2884,-0.2857,-0.2867,-0.285,-0.284,-0.2811,-0.2808,-0.2794,-0.2814,-0.277,-0.2798,-0.2771,-0.2765,-0.2761,-0.2692,-0.269,-0.2509,-0.2451,-0.243,-0.2729,-0.273,-0.2731,0,-0.2735,-0.279,-0.2795,-0.2814,-0.2847,-0.2834,-0.2837,-0.2828,-0.2802,-0.2781,-0.2761,-0.2735,-0.2725,-0.2693,-0.271,-0.2725,-0.266,-0.2665,-0.2581,-0.2578,-0.2448,-0.2436,-0.2333,-0.2591,-0.2591,-0.2592,-0.2592,0,-0.2702,-0.2696,-0.2765,-0.2766,-0.2738,-0.2777,-0.272,-0.2726,-0.2714,-0.267,-0.2704,-0.2677,-0.2694,-0.2674,-0.2673,-0.2606,-0.2614,-0.2563,-0.2541,-0.2456,-0.2446,-0.2396,-0.2427,-0.2589,-0.259,-0.259,-0.2591,0,-0.2606,-0.2665,-0.2655,-0.2699,-0.2703,-0.2672,-0.2654,-0.2603,-0.2633,-0.2586,-0.2581,-0.2618,-0.2598,-0.2609,-0.2571,-0.2546,-0.2445,-0.2462,-0.2381,-0.2349,-0.2239,-0.2276,-0.2153,-0.2092,-0.2336,-0.2334,-0.2333,0,-0.2554,-0.2553,-0.2589,-0.2566,-0.258,-0.255,-0.2512,-0.2542,-0.2509,-0.2542,-0.2515,-0.2521,-0.2494,-0.2443,-0.2398,-0.2339,-0.235,-0.2199,-0.2195,-0.2195,-0.2221,-0.2255,-0.2216,-0.2044,-0.204,-0.2037,-0.2034,0,-0.2439,-0.2461,-0.2458,-0.2426,-0.2396,-0.2352,-0.233,-0.2311,-0.2345,-0.2346,-0.2357,-0.2353,-0.2331,-0.2236,-0.2183,-0.2135,-0.2136,-0.213,-0.2126,-0.1972,-0.2002,-0.1944,-0.2165,-0.2006,-0.2009,-0.2011,-0.2012,-0.2013,-0.2335,-0.2303,-0.2296,-0.2246,-0.2208,-0.2149,-0.2073,-0.2095,-0.2059,-0.206,-0.2158,-0.2135,-0.2111,-0.2016,-0.1968,-0.1842,-0.1919,-0.1785,-0.1829,-0.1864,-0.1795,-0.197,-0.1791,-0.1793,-0.1794,-0.1796,-0.1797,0,-0.2186,-0.2156,-0.21,-0.2028,-0.1918,-0.1966,-0.1922,-0.1849,-0.1796,-0.1867,-0.1872,-0.1874,-0.1771,-0.176,-0.1658,-0.1576,-0.1541,-0.1543,-0.1557,-0.1529,-0.1653,-0.163,-0.1411,-0.1411,-0.1411,-0.1411,-0.1411,-0.1411,-0.21,-0.1995,-0.1967,-0.1755,-0.1697,-0.1536,-0.1495,-0.1466,-0.1486,-0.1477,-0.152,-0.1606,-0.1622,-0.1686,-0.1548,-0.1458,-0.1431,-0.1376,-0.1425,-0.1524,-0.1551,-0.1576,-0.1558,-0.1328,-0.1328,-0.1221,-0.1221,-0.122]},{"header":{"parameterUnit":"m.s-1","parameterCategory":2,"la1":30.2991,"la2":30.254,"lo1":-89.0895,"lo2":-89.0444,"dy":0.0017,"dx":0.0017,"nx":28,"ny":28,"refTime":"2025-12-06T03:00:00:Z","depth":"0","parameterNumber":3,"parameterNumberName":"V-component_of_CURRENTS"},"data":[0,0,0,0,0,0,0,0,0,0,0,0,0,0,0,0,0,0,0,0,0,0,0,0,0,0,0,0,0,0,0,0,0,0,0,0,0,0,0,0,0,0,0,0,0,0,0,0,0,0,0,0,0,0,0,0,0,0,-0.0723,-0.0722,0,-0.0589,-0.0588,-0.0586,-0.0517,-0.0517,-0.0517,-0.0517,-0.034,-0.0335,-0.033,0,0,0,0,0,0,0,0,0,0,0,0,0,-0.0819,-0.0818,-0.0723,-0.0722,-0.072,-0.059,-0.0588,-0.0586,-0.0517,-0.0517,-0.0517,-0.0517,-0.0341,-0.0336,-0.033,0,0,0,0,0,0,0,0,0,0,0,0,0,-0.074,-0.0818,-0.0724,-0.0671,-0.0664,-0.059,-0.0588,-0.0585,-0.0517,-0.0517,-0.0517,-0.0517,-0.0343,-0.0336,-0.0329,-0.0286,0,0,-0.0308,-0.0305,0,0,0,0,0,0,0,0,-0.0745,-0.0737,-0.068,-0.0674,-0.0667,-0.057,-0.0556,-0.0483,-0.0517,-0.0572,-0.0517,-0.0517,-0.0413,-0.04,-0.0375,-0.0278,-0.027,-0.0307,-0.0303,-0.03,-0.0298,0,0,0,0,0,0,0,-0.075,-0.0741,-0.067,-0.0678,-0.067,-0.0619,-0.0609,-0.0542,-0.0493,-0.0568,-0.0562,-0.0549,-0.0409,-0.0382,-0.037,-0.0268,-0.0307,-0.0301,-0.0297,-0.0294,-0.0123,-0.0123,0,0,0,0,0,0,-0.0773,-0.0747,-0.0674,-0.0666,-0.0707,-0.0618,-0.0606,-0.0601,-0.0495,-0.0479,-0.0549,-0.0546,-0.0394,-0.0379,-0.0364,-0.031,-0.03,-0.0293,-0.0289,-0.0124,-0.0123,-0.0123,0,0,0,0,0,0,-0.0776,-0.0769,-0.0679,-0.0703,-0.0688,-0.0617,-0.0611,-0.0598,-0.0572,-0.0481,-0.0464,-0.0536,-0.0393,-0.0374,-0.0307,-0.0303,-0.029,-0.0284,-0.0124,-0.0124,-0.0123,-0.0201,0,0,0,0,0,0,-0.078,-0.0771,-0.0778,-0.0705,-0.0688,-0.0647,-0.0611,-0.0596,-0.0563,-0.0558,-0.0464,-0.0448,-0.0392,-0.0318,-0.03,-0.0293,-0.0278,-0.0124,-0.0124,-0.0123,-0.0198,-0.0203,-0.0207,0,0,0,0,0,-0.0784,-0.0796,-0.078,-0.0771,-0.07,-0.0647,-0.0634,-0.0581,-0.0563,-0.0556,-0.049,-0.0451,-0.0302,-0.0312,-0.0291,-0.0282,-0.0125,-0.0124,-0.0123,-0.0197,-0.0202,-0.0207,0,0,0,0,0,0,-0.0853,-0.0788,-0.0769,-0.0765,-0.0716,-0.0636,-0.0626,-0.0587,-0.0528,-0.0525,-0.044,-0.0419,-0.0361,-0.0309,-0.0323,-0.0231,-0.0209,-0.0204,-0.0271,-0.0276,-0.028,-0.0292,-0.0272,0,0,0,0,0,-0.0871,-0.0859,-0.0791,-0.0791,-0.0769,-0.0699,-0.0672,-0.0635,-0.0572,-0.0547,-0.0479,-0.0407,-0.0341,-0.0301,-0.0239,-0.0183,-0.0136,-0.0165,-0.0169,-0.0173,-0.0168,-0.01,-0.0098,-0.0121,-0.0121,-0.0121,0,0,-0.0902,-0.0862,-0.0859,-0.0804,-0.0762,-0.0733,-0.0683,-0.0649,-0.0621,-0.0536,-0.0482,-0.042,-0.0331,-0.0273,-0.0242,-0.0228,-0.0144,-0.0172,-0.0176,-0.0169,-0.0099,-0.0097,-0.0095,-0.012,-0.012,-0.0121,0,0,-0.0941,-0.092,-0.0914,-0.0876,-0.0816,-0.077,-0.0764,-0.0687,-0.0649,-0.0591,-0.0524,-0.0459,-0.036,-0.0293,-0.0246,-0.0232,-0.0173,-0.0216,-0.0238,-0.0172,-0.017,-0.0168,-0.0121,-0.0113,-0.0213,-0.0213,-0.0214,0,-0.098,-0.0962,-0.0907,-0.0886,-0.0858,-0.0791,-0.0775,-0.0728,-0.0639,-0.0596,-0.0589,-0.0431,-0.0368,-0.0274,-0.0275,-0.0241,-0.0201,-0.023,-0.0179,-0.0175,-0.0171,-0.0123,-0.0114,-0.0217,-0.0217,-0.0216,-0.0216,0,-0.1004,-0.0991,-0.0987,-0.0937,-0.0899,-0.0882,-0.0806,-0.0769,-0.072,-0.0655,-0.0565,-0.0478,-0.0379,-0.0356,-0.0311,-0.0243,-0.0224,-0.0199,-0.0173,-0.0174,-0.0123,-0.0112,-0.0222,-0.0221,-0.022,-0.0219,0,0,-0.1088,-0.1017,-0.1021,-0.0991,-0.0925,-0.089,-0.0851,-0.0773,-0.073,-0.0656,-0.0588,-0.0486,-0.0432,-0.0375,-0.0308,-0.0256,-0.0206,-0.0224,-0.0219,-0.0188,-0.0072,-0.0039,-0.0023,-0.0174,-0.0172,-0.0171,-0.0054,0,-0.1123,-0.1104,-0.1052,-0.1026,-0.1001,-0.0927,-0.0885,-0.0806,-0.0739,-0.0662,-0.0561,-0.0479,-0.0439,-0.0395,-0.0335,-0.0233,-0.0177,-0.024,-0.0065,-0.006,-0.0038,-0.0009,0.002,0.0129,-0.0043,-0.0041,-0.004,0,-0.1151,-0.1134,-0.1123,-0.1038,-0.1021,-0.0998,-0.0909,-0.0856,-0.0739,-0.0683,-0.059,-0.0508,-0.0403,-0.0384,-0.0216,-0.0258,-0.0172,-0.0104,-0.0097,-0.0027,-0.0005,0.0108,0.0156,0.0298,-0.0022,-0.0024,-0.0025,0,-0.1209,-0.1166,-0.1158,-0.1139,-0.1052,-0.1026,-0.0975,-0.0868,-0.0809,-0.0696,-0.0652,-0.0513,-0.0448,-0.0322,-0.0182,-0.0194,-0.0008,-0.0001,0.0114,0.0116,0.0198,0.0205,0.0398,0.012,0.012,0.0119,0.0119,0,-0.1247,-0.1234,-0.119,-0.1185,-0.1159,-0.1072,-0.1017,-0.0953,-0.085,-0.0782,-0.0667,-0.0599,-0.0432,-0.0303,-0.018,0.0004,0.0003,0.0122,0.0159,0.017,0.0173,0.0345,0.0395,0.0124,0.0123,0.0122,0.0121,0,-0.1294,-0.1269,-0.125,-0.1199,-0.1181,-0.1162,-0.1062,-0.1009,-0.0923,-0.0841,-0.0809,-0.0653,-0.0487,-0.0311,-0.0103,0.0007,0.0273,0.0243,0.0234,0.0267,0.0492,0.0535,0.0769,0.0849,0.0388,0.039,0.0391,0,-0.1309,-0.1313,-0.1287,-0.1275,-0.1256,-0.121,-0.1163,-0.1063,-0.101,-0.0871,-0.0837,-0.0668,-0.0531,-0.0213,0.0015,0.0257,0.0362,0.042,0.0408,0.0527,0.0602,0.0632,0.0684,0.0481,0.0483,0.0485,0.0486,0,-0.1344,-0.1345,-0.1341,-0.133,-0.1302,-0.1249,-0.1188,-0.1168,-0.1045,-0.0979,-0.0863,-0.0747,-0.0437,-0.0148,0.0165,0.0313,0.0529,0.0461,0.0606,0.0715,0.0743,0.0829,0.0364,0.0501,0.05,0.0499,0.0498,0.0497,-0.1377,-0.1389,-0.1383,-0.1363,-0.1328,-0.1276,-0.1239,-0.1183,-0.1112,-0.0999,-0.0894,-0.0697,-0.0283,0.0167,0.0339,0.0707,0.067,0.0814,0.0861,0.0885,0.0957,0.0512,0.0673,0.0672,0.0672,0.0671,0.0671,0,-0.1385,-0.1389,-0.139,-0.1355,-0.1304,-0.1282,-0.1226,-0.1179,-0.1117,-0.1001,-0.0873,-0.0426,-0.0007,0.0382,0.0893,0.1096,0.1139,0.1196,0.1257,0.1295,0.0934,0.0931,0.113,0.113,0.1129,0.1129,0.1129,0.1129,-0.1387,-0.1385,-0.138,-0.1319,-0.1286,-0.122,-0.1191,-0.1147,-0.1058,-0.0839,-0.0603,-0.0421,0.0136,0.0954,0.1428,0.1476,0.1643,0.1633,0.1718,0.1473,0.144,0.141,0.1422,0.172,0.1721,0.2068,0.2072,0.2074]}],[{"header":{"parameterUnit":"m.s-1","parameterCategory":2,"la1":30.2991,"la2":30.254,"lo1":-89.0895,"lo2":-89.0444,"dy":0.0017,"dx":0.0017,"nx":28,"ny":28,"refTime":"2025-12-06T03:00:00:Z","depth":"2","parameterNumber":2,"parameterNumberName":"U-component_of_CURRENTS"},"data":[0,0,0,0,0,0,0,0,0,0,0,0,0,0,0,0,0,0,0,0,0,0,0,0,0,0,0,0,0,0,0,0,0,0,0,0,0,0,0,0,0,0,0,0,0,0,0,0,0,0,0,0,0,0,0,0,0,0,-0.2203,-0.2204,0,-0.2251,-0.2251,-0.2252,-0.2243,-0.2243,-0.2243,-0.2242,-0.2249,-0.2249,-0.225,0,0,0,0,0,0,0,0,0,0,0,0,0,-0.2085,-0.2087,-0.2203,-0.2204,-0.2205,-0.2251,-0.2251,-0.2252,-0.2243,-0.2243,-0.2242,-0.2242,-0.2249,-0.2249,-0.225,0,0,0,0,0,0,0,0,0,0,0,0,0,-0.213,-0.2088,-0.2203,-0.221,-0.2212,-0.2251,-0.2251,-0.2252,-0.2243,-0.2243,-0.2242,-0.2242,-0.2248,-0.2249,-0.225,-0.2266,0,0,-0.2252,-0.2253,0,0,0,0,0,0,0,0,-0.2128,-0.2134,-0.2208,-0.221,-0.2212,-0.2245,-0.2213,-0.2256,-0.2244,-0.2226,-0.2242,-0.2242,-0.2248,-0.2248,-0.2252,-0.2266,-0.2266,-0.2252,-0.2253,-0.2253,-0.2253,0,0,0,0,0,0,0,-0.2124,-0.2132,-0.2217,-0.221,-0.2212,-0.2206,-0.2211,-0.222,-0.2234,-0.2227,-0.2228,-0.2242,-0.2247,-0.2251,-0.2252,-0.2266,-0.2252,-0.2253,-0.2253,-0.2254,-0.2318,-0.2319,0,0,0,0,0,0,-0.2131,-0.2129,-0.2215,-0.2219,-0.2173,-0.2209,-0.2214,-0.2231,-0.2235,-0.2237,-0.2243,-0.2242,-0.225,-0.2251,-0.2252,-0.2292,-0.2253,-0.2254,-0.2254,-0.2317,-0.2318,-0.232,0,0,0,0,0,0,-0.2128,-0.2138,-0.2213,-0.2179,-0.2188,-0.2212,-0.223,-0.2232,-0.2247,-0.2248,-0.2248,-0.2257,-0.225,-0.2251,-0.2272,-0.2292,-0.2254,-0.2255,-0.2315,-0.2317,-0.2319,-0.2359,0,0,0,0,0,0,-0.2125,-0.2137,-0.2157,-0.2179,-0.2191,-0.2245,-0.2231,-0.2234,-0.2258,-0.2258,-0.2261,-0.226,-0.2249,-0.2271,-0.2273,-0.2292,-0.2256,-0.2314,-0.2316,-0.2318,-0.2356,-0.2362,-0.2367,0,0,0,0,0,-0.212,-0.2147,-0.2158,-0.2169,-0.2216,-0.2246,-0.2251,-0.2261,-0.226,-0.2271,-0.2274,-0.226,-0.2287,-0.2273,-0.2275,-0.2294,-0.2313,-0.2316,-0.2318,-0.2354,-0.2361,-0.2367,0,0,0,0,0,0,-0.2107,-0.215,-0.2162,-0.2201,-0.2227,-0.2247,-0.2257,-0.2272,-0.2285,-0.2282,-0.2277,-0.2277,-0.2304,-0.2297,-0.2282,-0.2321,-0.2298,-0.2301,-0.2324,-0.2331,-0.2336,-0.2313,-0.2256,0,0,0,0,0,-0.2116,-0.2146,-0.2182,-0.2214,-0.2221,-0.2242,-0.2259,-0.2272,-0.2287,-0.2292,-0.23,-0.2306,-0.2316,-0.2322,-0.233,-0.2352,-0.2326,-0.2367,-0.2373,-0.2377,-0.236,-0.2344,-0.2346,-0.2329,-0.2329,-0.2329,0,0,-0.2129,-0.2149,-0.2173,-0.2214,-0.2223,-0.2247,-0.2248,-0.2276,-0.2301,-0.2291,-0.232,-0.2328,-0.2328,-0.2352,-0.2363,-0.2348,-0.2372,-0.2381,-0.2385,-0.2365,-0.2347,-0.2348,-0.235,-0.2331,-0.233,-0.233,0,0,-0.2148,-0.2172,-0.2197,-0.2219,-0.2249,-0.226,-0.2273,-0.2305,-0.2316,-0.2356,-0.2351,-0.2367,-0.2395,-0.239,-0.2392,-0.2433,-0.2404,-0.2448,-0.2453,-0.2439,-0.2439,-0.2439,-0.2419,-0.2417,-0.2448,-0.2448,-0.2448,0,-0.2156,-0.2191,-0.221,-0.2231,-0.2245,-0.2266,-0.2287,-0.2311,-0.2353,-0.2361,-0.237,-0.2401,-0.2407,-0.2416,-0.2433,-0.2443,-0.2428,-0.2428,-0.2444,-0.2443,-0.2442,-0.2422,-0.2419,-0.245,-0.245,-0.245,-0.2449,0,-0.217,-0.2219,-0.2226,-0.2258,-0.2278,-0.2298,-0.2329,-0.2356,-0.2376,-0.2398,-0.2425,-0.2435,-0.2443,-0.2462,-0.2461,-0.2466,-0.2456,-0.2454,-0.2421,-0.2446,-0.2423,-0.242,-0.2453,-0.2453,-0.2452,-0.2451,0,0,-0.2145,-0.2221,-0.2232,-0.2249,-0.2289,-0.23,-0.234,-0.2367,-0.2383,-0.2427,-0.2439,-0.2469,-0.2469,-0.247,-0.2474,-0.2467,-0.2463,-0.2462,-0.246,-0.2431,-0.2427,-0.236,-0.2349,-0.2466,-0.2465,-0.2465,-0.2416,0,-0.2145,-0.2193,-0.2229,-0.2275,-0.2295,-0.2323,-0.2355,-0.2389,-0.2414,-0.2437,-0.2447,-0.2464,-0.2474,-0.2478,-0.2475,-0.247,-0.2453,-0.2475,-0.2415,-0.2413,-0.2342,-0.2343,-0.2171,-0.2108,-0.2412,-0.2412,-0.2411,0,-0.2144,-0.2176,-0.2222,-0.228,-0.2284,-0.2309,-0.233,-0.2367,-0.2407,-0.2428,-0.2444,-0.2455,-0.2459,-0.2462,-0.2443,-0.246,-0.2438,-0.2429,-0.2427,-0.234,-0.2338,-0.2131,-0.2089,-0.2404,-0.2405,-0.2405,-0.2406,0,-0.2098,-0.2172,-0.2199,-0.2218,-0.2285,-0.2294,-0.2314,-0.2359,-0.2377,-0.2413,-0.2424,-0.2437,-0.2438,-0.2424,-0.2418,-0.2428,-0.2388,-0.2398,-0.2311,-0.2306,-0.2132,-0.2112,-0.2359,-0.2359,-0.2359,-0.2359,-0.2359,0,-0.2077,-0.2103,-0.2181,-0.2194,-0.2202,-0.2263,-0.227,-0.2302,-0.2348,-0.2355,-0.2405,-0.2403,-0.2428,-0.2417,-0.2406,-0.2343,-0.2374,-0.2295,-0.2283,-0.2144,-0.2127,-0.236,-0.2361,-0.2357,-0.2358,-0.2358,-0.2358,0,-0.2026,-0.2089,-0.2115,-0.2177,-0.2189,-0.2187,-0.2224,-0.2232,-0.2297,-0.2306,-0.2314,-0.2368,-0.2353,-0.2364,-0.2341,-0.2312,-0.2272,-0.2237,-0.2073,-0.2041,-0.2202,-0.2206,-0.2127,-0.2124,-0.2122,-0.2119,-0.2118,0,-0.2003,-0.2021,-0.2074,-0.2072,-0.209,-0.2106,-0.2116,-0.2187,-0.2198,-0.227,-0.226,-0.2278,-0.2252,-0.221,-0.2162,-0.2108,-0.219,-0.1923,-0.1905,-0.2178,-0.2175,-0.2183,-0.219,-0.1696,-0.1691,-0.1687,-0.1684,0,-0.1939,-0.1961,-0.1972,-0.1973,-0.1977,-0.198,-0.2001,-0.2006,-0.2092,-0.2104,-0.2117,-0.211,-0.2087,-0.1958,-0.1908,-0.1858,-0.1924,-0.1836,-0.2143,-0.1791,-0.177,-0.1769,-0.179,-0.1647,-0.1651,-0.1653,-0.1655,-0.1657,-0.1869,-0.1853,-0.1871,-0.1846,-0.1849,-0.1833,-0.1792,-0.1836,-0.1833,-0.1832,-0.1919,-0.186,-0.1856,-0.1686,-0.1606,-0.1551,-0.1684,-0.1612,-0.1625,-0.1642,-0.161,-0.1587,-0.1423,-0.1425,-0.1427,-0.1429,-0.1431,0,-0.1803,-0.1771,-0.1739,-0.1705,-0.1644,-0.1697,-0.1692,-0.164,-0.159,-0.1627,-0.1616,-0.1461,-0.1372,-0.1384,-0.124,-0.1214,-0.1205,-0.1165,-0.1155,-0.1191,-0.1224,-0.1171,-0.0867,-0.0866,-0.0864,-0.0863,0,0,-0.1754,-0.1689,-0.1659,-0.1512,-0.1479,-0.1377,-0.1347,-0.1306,-0.1299,-0.1229,-0.1202,-0.1299,-0.1337,-0.1106,-0.1047,-0.0937,-0.1054,-0.0886,-0.1335,-0.1358,-0.1389,-0.1474,-0.1433,0,0,0,0,0]},{"header":{"parameterUnit":"m.s-1","parameterCategory":2,"la1":30.2991,"la2":30.254,"lo1":-89.0895,"lo2":-89.0444,"dy":0.0017,"dx":0.0017,"nx":28,"ny":28,"refTime":"2025-12-06T03:00:00:Z","depth":"2","parameterNumber":3,"parameterNumberName":"V-component_of_CURRENTS"},"data":[0,0,0,0,0,0,0,0,0,0,0,0,0,0,0,0,0,0,0,0,0,0,0,0,0,0,0,0,0,0,0,0,0,0,0,0,0,0,0,0,0,0,0,0,0,0,0,0,0,0,0,0,0,0,0,0,0,0,-0.0201,-0.02,0,-0.0131,-0.013,-0.0129,-0.008,-0.008,-0.0079,-0.0079,0.0036,0.0038,0.0041,0,0,0,0,0,0,0,0,0,0,0,0,0,-0.0227,-0.0227,-0.0201,-0.02,-0.0199,-0.0131,-0.013,-0.0129,-0.008,-0.008,-0.0079,-0.0079,0.0035,0.0038,0.0041,0,0,0,0,0,0,0,0,0,0,0,0,0,-0.0192,-0.0227,-0.0201,-0.0167,-0.0163,-0.0131,-0.013,-0.0128,-0.008,-0.008,-0.0079,-0.0079,0.0034,0.0038,0.0042,0.0056,0,0,0.0054,0.0056,0,0,0,0,0,0,0,0,-0.0194,-0.0191,-0.0173,-0.0169,-0.0165,-0.0114,-0.0096,-0.0064,-0.008,-0.0112,-0.0079,-0.0078,-0.001,-0.0003,0.0009,0.0062,0.0067,0.0055,0.0057,0.0059,0.006,0,0,0,0,0,0,0,-0.0197,-0.0193,-0.0173,-0.0172,-0.0167,-0.0132,-0.0127,-0.009,-0.0064,-0.0109,-0.0105,-0.0098,-0.0008,0.0005,0.0012,0.0068,0.0055,0.0058,0.0061,0.0062,0.0154,0.0154,0,0,0,0,0,0,-0.021,-0.0196,-0.0175,-0.0171,-0.0179,-0.0132,-0.0127,-0.0131,-0.0065,-0.0055,-0.0098,-0.0096,-0.0003,0.0007,0.0016,0.0039,0.0059,0.0063,0.0065,0.0154,0.0154,0.0154,0,0,0,0,0,0,-0.0211,-0.0209,-0.0178,-0.0181,-0.0175,-0.0133,-0.0137,-0.0129,-0.0119,-0.0058,-0.0047,-0.0096,-0.0002,0.0011,0.005,0.0044,0.0065,0.0068,0.0154,0.0154,0.0154,0.0083,0,0,0,0,0,0,-0.0212,-0.021,-0.0225,-0.0183,-0.0175,-0.0166,-0.0138,-0.0129,-0.0115,-0.0111,-0.0052,-0.0041,-0.0,0.0043,0.0054,0.005,0.0072,0.0154,0.0154,0.0154,0.0085,0.0081,0.0077,0,0,0,0,0,-0.0214,-0.0233,-0.0227,-0.0224,-0.0195,-0.0166,-0.016,-0.0127,-0.0116,-0.0115,-0.0072,-0.0043,0.005,0.0046,0.0059,0.0056,0.0154,0.0154,0.0154,0.0087,0.0082,0.0077,0,0,0,0,0,0,-0.0248,-0.0229,-0.0221,-0.0234,-0.0207,-0.0158,-0.0157,-0.0135,-0.0102,-0.0098,-0.0042,-0.0027,0.0004,0.004,0.0034,0.0083,0.0107,0.0109,0.0052,0.0047,0.0042,0.0031,0.0075,0,0,0,0,0,-0.0266,-0.0279,-0.0245,-0.0255,-0.0245,-0.0204,-0.0192,-0.0168,-0.013,-0.0115,-0.0074,-0.0028,0.0013,0.0037,0.0077,0.0104,0.0142,0.0111,0.0106,0.0102,0.0102,0.0153,0.0153,0.0154,0.0154,0.0154,0,0,-0.028,-0.0273,-0.0279,-0.0264,-0.0241,-0.0233,-0.0196,-0.0179,-0.017,-0.0107,-0.0087,-0.0044,0.0016,0.0046,0.0064,0.0077,0.0121,0.0102,0.0098,0.01,0.0153,0.0153,0.0153,0.0154,0.0154,0.0154,0,0,-0.0313,-0.031,-0.0331,-0.0315,-0.029,-0.0261,-0.026,-0.0218,-0.0197,-0.017,-0.0123,-0.0083,-0.0027,0.0019,0.0049,0.0045,0.0093,0.0054,0.0027,0.0075,0.0076,0.0076,0.0116,0.0121,0.0055,0.0055,0.0055,0,-0.0337,-0.0354,-0.0329,-0.034,-0.0329,-0.0278,-0.0284,-0.0255,-0.0207,-0.0188,-0.0174,-0.0084,-0.0038,0.0012,0.0011,0.0035,0.0067,0.0039,0.0068,0.007,0.0072,0.0113,0.012,0.0051,0.0052,0.0052,0.0052,0,-0.0357,-0.0392,-0.0398,-0.0398,-0.0382,-0.0377,-0.0332,-0.0316,-0.0286,-0.025,-0.0202,-0.0135,-0.008,-0.0061,-0.0025,0.0011,0.003,0.0052,0.0078,0.0067,0.0112,0.012,0.0046,0.0048,0.0049,0.0049,0,0,-0.0392,-0.0412,-0.0423,-0.0442,-0.0412,-0.0401,-0.0386,-0.0351,-0.0339,-0.0287,-0.0261,-0.0189,-0.015,-0.0112,-0.0059,-0.0016,0.0022,0.0017,0.0021,0.0048,0.0123,0.0148,0.0159,0.0046,0.0047,0.0048,0.0146,0,-0.0426,-0.0473,-0.0458,-0.0495,-0.0519,-0.0468,-0.0457,-0.0417,-0.0373,-0.0336,-0.0256,-0.0211,-0.0168,-0.0141,-0.0092,-0.0002,0.004,-0.0007,0.0137,0.0141,0.0158,0.0169,0.0144,0.023,0.0154,0.0155,0.0156,0,-0.0463,-0.0497,-0.0544,-0.0567,-0.0564,-0.0562,-0.0529,-0.051,-0.044,-0.0404,-0.0341,-0.0275,-0.0194,-0.0161,-0.002,-0.0053,0.0025,0.0091,0.0097,0.0152,0.0181,0.0231,0.0247,0.017,0.0168,0.0167,0.0167,0,-0.0517,-0.0562,-0.0604,-0.0608,-0.0612,-0.061,-0.0591,-0.0537,-0.0516,-0.0444,-0.0416,-0.0312,-0.0255,-0.0144,-0.0005,-0.0012,0.0149,0.0162,0.0258,0.0261,0.0285,0.0288,0.0256,0.0256,0.0256,0.0255,0.0255,0,-0.0571,-0.0611,-0.0637,-0.0664,-0.0694,-0.0668,-0.067,-0.0634,-0.058,-0.0552,-0.0455,-0.0404,-0.0249,-0.0134,-0.0015,0.0149,0.0146,0.0259,0.0292,0.0259,0.0259,0.0244,0.0241,0.0259,0.0258,0.0257,0.0257,0,-0.0628,-0.0649,-0.0708,-0.0729,-0.0733,-0.0751,-0.0723,-0.0716,-0.0662,-0.0621,-0.0598,-0.0466,-0.0316,-0.0154,0.0035,0.0138,0.0291,0.0347,0.0295,0.032,0.037,0.0362,0.0464,0.0466,0.0467,0.0469,0.047,0,-0.0651,-0.0702,-0.076,-0.0789,-0.0798,-0.0814,-0.0817,-0.0767,-0.0751,-0.0653,-0.0632,-0.0486,-0.0365,-0.008,0.0121,0.0337,0.0337,0.0436,0.0423,0.0371,0.0393,0.0383,0.0374,0.0427,0.0427,0.0428,0.0428,0,-0.0706,-0.0737,-0.0783,-0.0853,-0.0878,-0.0888,-0.0883,-0.0882,-0.0815,-0.0765,-0.0665,-0.0563,-0.0294,-0.0057,0.0215,0.0339,0.0399,0.0453,0.043,0.0372,0.0343,0.0362,0.0353,0.0433,0.0432,0.0432,0.0432,0.0431,-0.0733,-0.0789,-0.0861,-0.091,-0.0937,-0.0945,-0.0941,-0.092,-0.0884,-0.0786,-0.0697,-0.052,-0.03,0.009,0.0287,0.0468,0.0463,0.0513,0.0509,0.0505,0.0478,0.0452,0.0557,0.0557,0.0557,0.0558,0.0558,0,-0.0785,-0.0842,-0.0901,-0.0957,-0.097,-0.0973,-0.0968,-0.0938,-0.0888,-0.0786,-0.067,-0.0416,-0.0151,0.0081,0.0371,0.0542,0.0525,0.0568,0.0511,0.0506,0.0501,0.0471,0.0551,0.0551,0.0552,0.0552,0,0,-0.0811,-0.0888,-0.0925,-0.0965,-0.0987,-0.0984,-0.0973,-0.0924,-0.0843,-0.0726,-0.0598,-0.0427,-0.0144,0.0058,0.027,0.0422,0.042,0.0436,0.0424,0.0327,0.032,0.0454,0.0401,0,0,0,0,0]}],[{"header":{"parameterUnit":"m.s-1","parameterCategory":2,"la1":30.2991,"la2":30.254,"lo1":-89.0895,"lo2":-89.0444,"dy":0.0017,"dx":0.0017,"nx":28,"ny":28,"refTime":"2025-12-06T03:00:00:Z","depth":"4","parameterNumber":2,"parameterNumberName":"U-component_of_CURRENTS"},"data":[0,0,0,0,0,0,0,0,0,0,0,0,0,0,0,0,0,0,0,0,0,0,0,0,0,0,0,0,0,0,0,0,0,0,0,0,0,0,0,0,0,0,0,0,0,0,0,0,0,0,0,0,0,0,0,0,0,0,-0.1278,-0.1278,0,-0.1336,-0.1337,-0.1338,-0.1366,-0.1366,-0.1366,-0.1366,-0.1434,-0.1436,-0.1438,0,0,0,0,0,0,0,0,0,0,0,0,0,-0.1213,-0.1214,-0.1278,-0.1279,-0.1279,-0.1336,-0.1337,-0.1338,-0.1366,-0.1366,-0.1366,-0.1366,-0.1434,-0.1436,-0.1438,0,0,0,0,0,0,0,0,0,0,0,0,0,-0.1253,-0.1214,-0.1278,-0.13,-0.1302,-0.1336,-0.1337,-0.1338,-0.1366,-0.1366,-0.1366,-0.1366,-0.1433,-0.1436,-0.1439,-0.1457,0,0,-0.1447,-0.1448,0,0,0,0,0,0,0,0,-0.1251,-0.1256,-0.1296,-0.1298,-0.1301,-0.1343,-0.1339,-0.1378,-0.1366,-0.1342,-0.1366,-0.1366,-0.1405,-0.141,-0.1421,-0.146,-0.1463,-0.1447,-0.1449,-0.145,-0.1451,0,0,0,0,0,0,0,-0.1248,-0.1253,-0.1301,-0.1297,-0.13,-0.1314,-0.132,-0.1347,-0.1374,-0.1344,-0.1346,-0.1352,-0.1406,-0.1419,-0.1423,-0.1464,-0.1447,-0.145,-0.1451,-0.1453,-0.1577,-0.1579,0,0,0,0,0,0,-0.1239,-0.1251,-0.1299,-0.1303,-0.1275,-0.1316,-0.1322,-0.133,-0.1373,-0.1379,-0.1352,-0.1354,-0.1414,-0.142,-0.1426,-0.1505,-0.145,-0.1453,-0.1454,-0.1576,-0.1578,-0.1579,0,0,0,0,0,0,-0.1238,-0.1243,-0.1297,-0.1278,-0.1285,-0.1316,-0.1326,-0.1331,-0.1364,-0.1379,-0.1386,-0.1381,-0.1414,-0.1422,-0.1474,-0.1506,-0.1454,-0.1457,-0.1574,-0.1576,-0.1579,-0.1628,0,0,0,0,0,0,-0.1236,-0.1242,-0.1252,-0.1277,-0.1286,-0.1327,-0.1326,-0.1333,-0.1366,-0.1369,-0.1406,-0.1411,-0.1415,-0.147,-0.1477,-0.1508,-0.1459,-0.1572,-0.1575,-0.1578,-0.1624,-0.1632,-0.1638,0,0,0,0,0,-0.1233,-0.1242,-0.1252,-0.1259,-0.1297,-0.1327,-0.1334,-0.1356,-0.1368,-0.1385,-0.1418,-0.1411,-0.1494,-0.1474,-0.1482,-0.1515,-0.157,-0.1574,-0.1578,-0.1621,-0.163,-0.1638,0,0,0,0,0,0,-0.122,-0.1247,-0.1258,-0.1276,-0.1305,-0.1332,-0.1352,-0.137,-0.141,-0.142,-0.1436,-0.1444,-0.1497,-0.1503,-0.1481,-0.156,-0.153,-0.1535,-0.156,-0.1569,-0.1576,-0.1582,-0.1461,0,0,0,0,0,-0.1221,-0.1236,-0.1266,-0.1282,-0.13,-0.1333,-0.1352,-0.1369,-0.1403,-0.1421,-0.1453,-0.1485,-0.1516,-0.1541,-0.1564,-0.1614,-0.1602,-0.164,-0.1647,-0.1652,-0.1663,-0.1675,-0.1684,-0.1592,-0.1591,-0.1591,0,0,-0.1219,-0.1237,-0.1245,-0.1281,-0.1308,-0.1343,-0.1345,-0.1381,-0.1419,-0.1423,-0.1494,-0.1511,-0.1534,-0.1585,-0.161,-0.1598,-0.167,-0.1657,-0.1662,-0.167,-0.168,-0.1689,-0.1696,-0.1594,-0.1594,-0.1593,0,0,-0.1224,-0.1244,-0.1262,-0.1292,-0.1335,-0.1358,-0.1374,-0.1422,-0.1454,-0.1514,-0.1527,-0.1572,-0.1623,-0.165,-0.1666,-0.1731,-0.1703,-0.1734,-0.1783,-0.1794,-0.1801,-0.1808,-0.179,-0.1794,-0.1743,-0.1743,-0.1743,0,-0.1227,-0.1251,-0.1272,-0.1306,-0.1338,-0.137,-0.1409,-0.1447,-0.1508,-0.1546,-0.1543,-0.1635,-0.1655,-0.172,-0.1743,-0.1747,-0.1734,-0.1746,-0.1802,-0.1808,-0.1814,-0.1794,-0.1798,-0.1746,-0.1746,-0.1745,-0.1745,0,-0.1239,-0.1277,-0.1295,-0.1349,-0.1385,-0.1422,-0.1476,-0.1527,-0.1569,-0.1606,-0.1684,-0.1713,-0.1767,-0.178,-0.1785,-0.1844,-0.1813,-0.1803,-0.1776,-0.1826,-0.1802,-0.1805,-0.175,-0.1749,-0.1748,-0.1748,0,0,-0.121,-0.1289,-0.1301,-0.1345,-0.1414,-0.1449,-0.1522,-0.1596,-0.1652,-0.1709,-0.1774,-0.1839,-0.1854,-0.1874,-0.1885,-0.1903,-0.193,-0.1876,-0.1876,-0.1851,-0.1932,-0.1794,-0.1784,-0.1924,-0.1925,-0.1926,-0.1893,0,-0.1223,-0.1289,-0.1328,-0.1411,-0.1454,-0.1518,-0.1586,-0.1658,-0.1714,-0.1784,-0.1827,-0.1884,-0.1889,-0.1912,-0.1938,-0.1931,-0.1944,-0.1939,-0.1895,-0.1893,-0.1759,-0.1786,-0.1931,-0.1895,-0.1896,-0.1897,-0.1897,0,-0.1222,-0.1272,-0.1343,-0.1458,-0.1486,-0.154,-0.1654,-0.172,-0.1815,-0.1858,-0.192,-0.1941,-0.1997,-0.1977,-0.2004,-0.1996,-0.1977,-0.1962,-0.196,-0.1819,-0.1762,-0.1841,-0.1903,-0.1902,-0.1902,-0.1901,-0.1901,0,-0.1183,-0.129,-0.1349,-0.1385,-0.1506,-0.1566,-0.164,-0.1743,-0.1804,-0.19,-0.1929,-0.1998,-0.2016,-0.2025,-0.2007,-0.2007,-0.2,-0.1992,-0.185,-0.1839,-0.1951,-0.1944,-0.2006,-0.2006,-0.2006,-0.2006,-0.2006,0,-0.1173,-0.1232,-0.134,-0.1377,-0.1465,-0.1559,-0.1659,-0.1739,-0.1835,-0.1884,-0.1961,-0.1976,-0.2028,-0.2026,-0.2014,-0.193,-0.2008,-0.1857,-0.1825,-0.197,-0.1967,-0.1951,-0.1945,-0.2005,-0.2005,-0.2006,-0.2006,0,-0.112,-0.1193,-0.1268,-0.1399,-0.1448,-0.1509,-0.1658,-0.1719,-0.1817,-0.1872,-0.1896,-0.1963,-0.195,-0.1972,-0.1966,-0.191,-0.1864,-0.1816,-0.1955,-0.1931,-0.1692,-0.169,-0.1651,-0.1646,-0.1642,-0.1638,-0.1635,0,-0.1091,-0.1123,-0.1258,-0.1309,-0.1373,-0.1483,-0.1555,-0.169,-0.1735,-0.1835,-0.1832,-0.186,-0.1883,-0.1759,-0.1807,-0.1762,-0.1746,-0.1711,-0.1723,-0.1685,-0.1659,-0.1663,-0.1666,-0.1628,-0.1627,-0.1626,-0.1625,0,-0.1027,-0.1078,-0.1134,-0.124,-0.1322,-0.1414,-0.1516,-0.1529,-0.1654,-0.1752,-0.1712,-0.1694,-0.1668,-0.1654,-0.1627,-0.1603,-0.1732,-0.1667,-0.1676,-0.1686,-0.1657,-0.1636,-0.1644,-0.161,-0.1612,-0.1614,-0.1615,0,-0.096,-0.097,-0.1049,-0.1146,-0.1253,-0.1307,-0.1378,-0.1418,-0.1472,-0.1569,-0.1545,-0.1577,-0.1637,-0.1568,-0.1547,-0.1508,-0.1489,-0.1447,-0.1467,-0.1484,-0.1447,-0.1387,-0.1227,0,0,0,0,0,-0.0871,-0.0883,-0.0961,-0.1047,-0.1165,-0.1226,-0.1338,-0.1401,-0.1497,-0.1424,-0.1481,-0.1448,-0.1403,-0.1427,-0.1349,-0.1478,-0.1503,-0.1383,-0.1468,-0.1528,-0.1545,-0.1517,0,0,0,0,0,0,-0.0803,-0.0848,-0.0905,-0.0965,-0.1014,-0.111,-0.117,-0.1236,-0.1206,-0.1301,-0.128,-0.1355,-0.1334,-0.1416,-0.1315,-0.1323,-0.1345,-0.1417,-0.1412,-0.1518,-0.1534,-0.1548,-0.1525,0,0,0,0,0]},{"header":{"parameterUnit":"m.s-1","parameterCategory":2,"la1":30.2991,"la2":30.254,"lo1":-89.0895,"lo2":-89.0444,"dy":0.0017,"dx":0.0017,"nx":28,"ny":28,"refTime":"2025-12-06T03:00:00:Z","depth":"4","parameterNumber":3,"parameterNumberName":"V-component_of_CURRENTS"},"data":[0,0,0,0,0,0,0,0,0,0,0,0,0,0,0,0,0,0,0,0,0,0,0,0,0,0,0,0,0,0,0,0,0,0,0,0,0,0,0,0,0,0,0,0,0,0,0,0,0,0,0,0,0,0,0,0,0,0,-0.0034,-0.0034,0,-0.0008,-0.0008,-0.0008,0.0015,0.0016,0.0016,0.0016,0.0084,0.0085,0.0086,0,0,0,0,0,0,0,0,0,0,0,0,0,-0.003,-0.0031,-0.0034,-0.0034,-0.0033,-0.0008,-0.0008,-0.0008,0.0015,0.0016,0.0016,0.0016,0.0083,0.0085,0.0087,0,0,0,0,0,0,0,0,0,0,0,0,0,-0.0022,-0.0031,-0.0034,-0.0018,-0.0016,-0.0008,-0.0008,-0.0008,0.0015,0.0016,0.0016,0.0017,0.0083,0.0085,0.0087,0.0089,0,0,0.0093,0.0094,0,0,0,0,0,0,0,0,-0.0023,-0.0022,-0.0021,-0.0019,-0.0017,0.0002,0.0018,0.0027,0.0015,0.0002,0.0016,0.0017,0.0061,0.0065,0.0066,0.0092,0.0095,0.0094,0.0095,0.0096,0.0097,0,0,0,0,0,0,0,-0.0023,-0.0023,-0.0025,-0.0021,-0.0018,-0.0,0.0001,0.002,0.0028,0.0003,0.0005,0.001,0.0062,0.0064,0.0068,0.0096,0.0094,0.0096,0.0097,0.0098,0.0144,0.0144,0,0,0,0,0,0,-0.0027,-0.0024,-0.0026,-0.0024,-0.0017,-0.0001,0.0001,-0.0006,0.0027,0.0032,0.0009,0.0011,0.006,0.0065,0.007,0.008,0.0096,0.0098,0.0099,0.0144,0.0144,0.0144,0,0,0,0,0,0,-0.0027,-0.0028,-0.0027,-0.0022,-0.002,-0.0002,-0.0009,-0.0005,-0.0002,0.0031,0.0037,0.001,0.006,0.0067,0.0087,0.0083,0.0099,0.0101,0.0145,0.0144,0.0144,0.0096,0,0,0,0,0,0,-0.0027,-0.0028,-0.0035,-0.0022,-0.0021,-0.0028,-0.0009,-0.0005,0.0001,0.0003,0.0034,0.004,0.0061,0.0083,0.0089,0.0086,0.0103,0.0145,0.0145,0.0144,0.0098,0.0094,0.0091,0,0,0,0,0,-0.0027,-0.0039,-0.0036,-0.0036,-0.0031,-0.0028,-0.0026,-0.0011,0.0,-0.0005,0.002,0.004,0.0087,0.0085,0.0092,0.0089,0.0145,0.0145,0.0144,0.0099,0.0095,0.0091,0,0,0,0,0,0,-0.0034,-0.0037,-0.0034,-0.0045,-0.004,-0.0024,-0.0026,-0.0014,0.0,0.0006,0.0037,0.0045,0.006,0.0082,0.0079,0.0103,0.012,0.0121,0.0083,0.0079,0.0076,0.0067,0.0104,0,0,0,0,0,-0.0041,-0.0056,-0.0049,-0.0057,-0.0058,-0.0043,-0.0039,-0.0029,-0.0013,-0.0006,0.0015,0.0042,0.0064,0.0077,0.0097,0.011,0.0138,0.0114,0.011,0.0108,0.0106,0.0146,0.0146,0.0144,0.0144,0.0144,0,0,-0.004,-0.0048,-0.0052,-0.006,-0.0056,-0.0066,-0.004,-0.0038,-0.004,-0.0,0.0003,0.003,0.0064,0.0077,0.0086,0.0095,0.0122,0.0107,0.0104,0.0104,0.0146,0.0146,0.0146,0.0144,0.0144,0.0144,0,0,-0.0057,-0.006,-0.0082,-0.0086,-0.0087,-0.0079,-0.008,-0.0069,-0.0059,-0.0052,-0.0021,0.0005,0.003,0.0057,0.0075,0.0068,0.0102,0.0073,0.0052,0.0091,0.0091,0.0092,0.0122,0.0126,0.0074,0.0073,0.0073,0,-0.0061,-0.0089,-0.0084,-0.0109,-0.0114,-0.0089,-0.0109,-0.0097,-0.0078,-0.007,-0.0057,-0.0008,0.0022,0.0048,0.0046,0.0061,0.0084,0.0061,0.0086,0.0088,0.0089,0.012,0.0125,0.0071,0.0071,0.0072,0.0072,0,-0.0092,-0.0119,-0.0131,-0.0159,-0.0161,-0.0173,-0.0158,-0.0155,-0.0138,-0.012,-0.0093,-0.0049,-0.0019,-0.0004,0.0019,0.0044,0.0057,0.0075,0.0093,0.0087,0.0119,0.0125,0.0068,0.0069,0.0069,0.007,0,0,-0.0095,-0.0148,-0.015,-0.0183,-0.0191,-0.0199,-0.0201,-0.0197,-0.0196,-0.0164,-0.0154,-0.0107,-0.0076,-0.0053,-0.0015,0.0022,0.0055,0.0049,0.0052,0.0073,0.0134,0.0123,0.0129,0.0076,0.0077,0.0077,0.0149,0,-0.0126,-0.0192,-0.0198,-0.0247,-0.0283,-0.0266,-0.0273,-0.0259,-0.0235,-0.0219,-0.0158,-0.0134,-0.0096,-0.0079,-0.0036,0.0034,0.0069,0.0033,0.0142,0.0145,0.0133,0.0135,0.008,0.0154,0.0156,0.0157,0.0157,0,-0.0155,-0.0203,-0.0265,-0.0317,-0.0326,-0.0342,-0.0348,-0.0349,-0.031,-0.0287,-0.0244,-0.0195,-0.0134,-0.0101,0.0013,-0.0013,0.0052,0.0108,0.0113,0.0124,0.0145,0.0166,0.0169,0.0168,0.0167,0.0166,0.0165,0,-0.0179,-0.0246,-0.0302,-0.0321,-0.0368,-0.0383,-0.0393,-0.0372,-0.0372,-0.0328,-0.0312,-0.0235,-0.0192,-0.0099,0.0017,0.0015,0.0144,0.0158,0.021,0.021,0.022,0.0218,0.0235,0.0235,0.0235,0.0235,0.0235,0,-0.0218,-0.0263,-0.0323,-0.036,-0.0416,-0.0425,-0.0458,-0.0449,-0.0428,-0.0422,-0.035,-0.0316,-0.0189,-0.0098,0.0005,0.0124,0.0137,0.0206,0.0229,0.0197,0.0192,0.0224,0.0221,0.0238,0.0237,0.0236,0.0236,0,-0.0238,-0.028,-0.0355,-0.0418,-0.0439,-0.0476,-0.0512,-0.0527,-0.0499,-0.0485,-0.0471,-0.0374,-0.0256,-0.0126,0.0031,0.0102,0.0222,0.0262,0.0211,0.0231,0.0264,0.0259,0.0321,0.0321,0.0322,0.0322,0.0322,0,-0.0252,-0.0298,-0.0394,-0.0447,-0.0481,-0.0536,-0.057,-0.0565,-0.0568,-0.0513,-0.05,-0.0394,-0.0314,-0.0099,0.0031,0.0214,0.0241,0.0293,0.0283,0.0257,0.0274,0.0268,0.0262,0.0322,0.0322,0.0322,0.0322,0,-0.0273,-0.0309,-0.037,-0.0487,-0.0547,-0.0606,-0.0644,-0.0648,-0.0624,-0.0602,-0.0509,-0.0392,-0.0262,-0.01,0.0038,0.0173,0.0253,0.0295,0.0296,0.0287,0.026,0.0274,0.0269,0.0323,0.0323,0.0323,0.0323,0,-0.0266,-0.0316,-0.0405,-0.0511,-0.0599,-0.0653,-0.0668,-0.0659,-0.0651,-0.0575,-0.0545,-0.0392,-0.0307,-0.0121,0.0012,0.0135,0.0164,0.0198,0.0204,0.0205,0.0148,0.0095,0.0127,0,0,0,0,0,-0.0235,-0.0308,-0.0423,-0.0536,-0.0634,-0.0676,-0.0711,-0.0708,-0.0678,-0.0615,-0.0575,-0.0445,-0.0241,-0.0151,-0.0029,0.0004,0.0172,0.0148,0.0211,0.0327,0.0326,0.0278,0,0,0,0,0,0,-0.0217,-0.0307,-0.0413,-0.0547,-0.0626,-0.0704,-0.0722,-0.0699,-0.0654,-0.0607,-0.0495,-0.0428,-0.023,-0.0309,-0.003,0.0006,0.006,0.0246,0.0248,0.0328,0.0327,0.0326,0.0276,0,0,0,0,0]}]]